Simultaneous Nadir Overpasses (SNOs) Predictions

Prediction of SNOs between AURA and NPP Satellite Orbit:

Table of predicted SNOs for the next 14.0 days since TLE Epoch: 3/23/2024
Index Date (AURA) Time (AURA) Lat,Lon (AURA) SZA (AURA ) Date (NPP) Time (NPP) Lat,Lon (NPP) SZA (NPP ) Distance(km) Time Diff (sec)
1 03/23/2024 13:32:06 80.46,-116.49 89.51 03/23/2024 13:31:36 80.46,-116.45 89.52 0.67 30
2 03/23/2024 14:21:27 -80.58, 52.40 90.72 03/23/2024 14:22:16 -80.58, 52.55 90.78 2.84 49
3 03/26/2024 03:17:16 -80.43,-143.11 91.47 03/26/2024 03:16:20 -80.43,-143.04 91.44 1.39 56
4 03/26/2024 04:06:37 80.50, 25.28 88.39 03/26/2024 04:07:02 80.50, 25.18 88.39 1.88 25
5 03/28/2024 17:51:43 -80.53, -0.64 92.70 03/28/2024 17:51:43 -80.53, -0.47 92.72 3.16 0
6 03/31/2024 07:36:47 80.49, -27.34 86.37 03/31/2024 07:36:26 80.48, -27.35 86.38 0.49 21
7 03/31/2024 08:26:08 -80.60, 141.57 93.87 03/31/2024 08:27:06 -80.61, 141.73 93.93 2.81 58
8 04/02/2024 21:21:52 -80.44, -54.07 94.56 04/02/2024 21:21:10 -80.44, -54.06 94.54 0.36 42
9 04/02/2024 22:11:11 80.57, 114.91 85.20 04/02/2024 22:11:49 80.58, 115.08 85.15 3.25 38
10 04/05/2024 11:06:53 80.40, -80.66 84.50 04/05/2024 11:05:53 80.40, -80.79 84.57 2.37 60



Historial Predications of SNOs between AURA and NPP
